O3B FM15 (43231 NORAD) Tracking and Keplerian Element Data

This shows tracking and keplerian element data for the satellite.

Feedback or suggestion? Click here.




ElementValue
Catalog43231
NameO3B FM15
Epoch Orbit651
Epoch Day198.67253871
Epoch Year2018
RAAN1.3643
Inclination0.0419
Eccentricity0.0002751
Argument of Perigee113.3389
Mean Anonmoly245.3218
Mean Motion5.00115829
Decay Rate-2.7E-07
L11 43231U 18024A 18198.67253871 -.00000027 00000-0 00000-0 0 9994
L22 43231 0.0419 1.3643 0002751 113.3389 245.3218 5.00115829 6517

Live tracking and technical data element details for O3B FM15 (NORAD 43231). O3B FM15 can be tracked NOW for your location showing map with azimuth and elevation plus other details from your city location.

Track the satellite on the map from your city or location and see movement details for azimuth, elevation, latitude, longitude, range, height, and movement on the map or in text.







IsCatalogInMostPopularTable: catalog: 43231, numindb: 38
Update: records affected: 1



GetName: 43231 O3B FM15

Hit Count: updated at: Thu, 19 Jul 2018 03:45:32 GMT